[[{"header":{"parameterUnit":"m.s-1","parameterCategory":1,"la1":30.2991,"la2":30.254,"lo1":-89.0895,"lo2":-89.0444,"dy":0.0017,"dx":0.0017,"nx":28,"ny":28,"refTime":"2024-09-27T21:00:00:Z","depth":0,"parameterNumber":2,"parameterNumberName":"U-component_of_WINDS"},"data":[0,0,0,0,0,0,0,0,0,0,0,0,0,0,0,0,0,0,0,0,0,0,0,0,0,0,0,0,0,0,0,0,0,0,0,0,0,0,0,0,0,0,0,0,0,0,0,0,0,0,0,0,0,0,0,0,0,0,5.0127,5.0129,0,5.0286,5.0288,5.029,5.0262,5.0259,5.0256,5.0254,5.042,5.0426,5.0433,0,0,0,0,0,0,0,0,0,0,0,0,0,4.9802,4.9808,5.0127,5.0129,5.0131,5.0286,5.0288,5.029,5.0263,5.0259,5.0256,5.0253,5.0417,5.0426,5.0434,0,0,0,0,0,0,0,0,0,0,0,0,0,4.995,4.981,5.0127,5.0136,5.0138,5.0285,5.0288,5.0291,5.0263,5.0259,5.0255,5.0251,5.0415,5.0425,5.0435,5.0584,0,0,5.0467,5.0472,0,0,0,0,0,0,0,0,4.9942,4.9962,5.0132,5.0135,5.0138,5.025,5.0234,5.0389,5.0264,5.0216,5.0254,5.0249,5.0367,5.0381,5.042,5.0592,5.0599,5.0468,5.0475,5.0479,5.0482,0,0,0,0,0,0,0,4.9932,4.9955,5.019,5.0135,5.0139,5.0133,5.0149,5.0263,5.0313,5.022,5.0218,5.0237,5.0368,5.041,5.0424,5.0601,5.0468,5.0477,5.0484,5.0488,5.0903,5.0907,0,0,0,0,0,0,4.9918,4.9947,5.0185,5.0195,5.0028,5.0142,5.016,5.0218,5.0312,5.0322,5.0241,5.0235,5.0394,5.0411,5.0429,5.0609,5.0479,5.0489,5.0495,5.0898,5.0904,5.0909,0,0,0,0,0,0,4.9911,4.994,5.0178,5.007,5.01,5.0152,5.0217,5.0224,5.0266,5.0327,5.0336,5.0275,5.0391,5.0415,5.0545,5.0615,5.0494,5.0503,5.0893,5.09,5.0907,5.0971,0,0,0,0,0,0,4.9902,4.9937,4.9994,5.0072,5.0106,5.0291,5.0222,5.023,5.0284,5.0278,5.0362,5.0371,5.039,5.053,5.0556,5.0627,5.0511,5.0887,5.0896,5.0904,5.0963,5.0979,5.0993,0,0,0,0,0,4.9891,5.0006,4.9997,5.0026,5.0178,5.0295,5.0315,5.0333,5.0289,5.0347,5.0386,5.0369,5.0603,5.0544,5.0573,5.0648,5.0882,5.0893,5.0904,5.0956,5.0976,5.0993,0,0,0,0,0,0,4.9936,5.0017,5.0007,5.0151,5.0216,5.029,5.0363,5.0354,5.0433,5.0425,5.0445,5.0464,5.0597,5.0636,5.0568,5.0797,5.0737,5.0754,5.0766,5.0786,5.0801,5.0789,5.052,0,0,0,0,0,4.9963,5.005,5.0117,5.0237,5.0271,5.0312,5.0363,5.0372,5.044,5.0468,5.0517,5.0585,5.0674,5.0732,5.0818,5.0968,5.0986,5.1035,5.105,5.1062,5.1076,5.1159,5.1181,5.0944,5.0944,5.0944,0,0,5.0019,5.0074,5.0128,5.0248,5.0299,5.0391,5.0335,5.0434,5.0502,5.0483,5.0609,5.0648,5.0726,5.0867,5.0931,5.0903,5.1146,5.1076,5.1085,5.1093,5.1172,5.1194,5.1214,5.0951,5.095,5.0949,0,0,5.0168,5.0218,5.0324,5.0377,5.0455,5.0481,5.0507,5.0583,5.0607,5.0734,5.0722,5.0803,5.0956,5.1012,5.106,5.123,5.1217,5.1258,5.1337,5.1417,5.1436,5.1452,5.1513,5.1534,5.1272,5.1272,5.1272,0,5.0228,5.0364,5.038,5.048,5.0533,5.052,5.0628,5.0678,5.0781,5.0818,5.0785,5.0976,5.1028,5.1181,5.1223,5.1262,5.1292,5.1248,5.1432,5.1449,5.1464,5.1522,5.1545,5.1276,5.1276,5.1275,5.1275,0,5.0434,5.0528,5.0605,5.0703,5.0765,5.0868,5.0901,5.0962,5.0965,5.0995,5.1124,5.1185,5.1283,5.132,5.1324,5.1475,5.1455,5.1427,5.1367,5.1491,5.1545,5.1568,5.1282,5.1281,5.128,5.1278,0,0,5.0615,5.0721,5.0748,5.0793,5.0878,5.0952,5.1056,5.115,5.1201,5.1273,5.136,5.149,5.1464,5.1519,5.1529,5.16,5.173,5.1563,5.1565,5.1591,5.1899,5.1919,5.1945,5.1722,5.1726,5.173,5.1892,0,5.0771,5.0952,5.097,5.1132,5.122,5.1209,5.1299,5.1362,5.1393,5.1472,5.1507,5.1598,5.1558,5.159,5.166,5.1699,5.1792,5.1688,5.1803,5.1807,5.1783,5.1973,5.1995,5.2146,5.1914,5.1918,5.192,0,5.0978,5.1054,5.1225,5.1298,5.1335,5.1416,5.1503,5.158,5.1651,5.1668,5.1729,5.1731,5.1838,5.1774,5.1922,5.1851,5.1899,5.1926,5.1932,5.1943,5.1871,5.1989,5.2194,5.2217,5.1954,5.1951,5.1949,0,5.1092,5.1238,5.1359,5.1397,5.1486,5.1542,5.1582,5.1649,5.1704,5.1781,5.1817,5.1906,5.1955,5.2024,5.205,5.2001,5.2197,5.2135,5.2215,5.2214,5.2256,5.2253,5.2471,5.2288,5.2288,5.2287,5.2287,0,5.1265,5.1369,5.1411,5.1486,5.1603,5.1623,5.1739,5.1776,5.1835,5.1917,5.1914,5.1991,5.202,5.2102,5.2123,5.2242,5.2264,5.2282,5.2286,5.2282,5.228,5.2314,5.2303,5.2293,5.2292,5.2291,5.229,0,5.1412,5.1444,5.1575,5.1648,5.1669,5.1752,5.1815,5.1887,5.1917,5.202,5.2046,5.2093,5.219,5.2222,5.2339,5.2353,5.2492,5.2488,5.2468,5.2468,5.2546,5.2538,5.2793,5.2828,5.2622,5.2624,5.2626,0,5.1519,5.16,5.1681,5.1735,5.1776,5.1864,5.192,5.1943,5.2002,5.2089,5.2151,5.2246,5.2323,5.2478,5.2524,5.2613,5.261,5.2694,5.2624,5.2617,5.2611,5.2606,5.2614,5.2707,5.2709,5.2711,5.2712,0,5.1707,5.1719,5.1799,5.1886,5.1953,5.2022,5.209,5.2134,5.2167,5.2234,5.2332,5.2392,5.2511,5.2606,5.2697,5.2739,5.2732,5.2734,5.2757,5.2753,5.2738,5.2746,5.2502,5.2728,5.2726,5.2725,5.2724,5.2723,5.1837,5.1908,5.1976,5.2066,5.2119,5.2181,5.2252,5.2291,5.2373,5.2471,5.248,5.2585,5.2655,5.2776,5.2823,5.2906,5.2883,5.2916,5.2925,5.2932,5.2938,5.2725,5.2923,5.2923,5.2922,5.2922,5.2922,0,5.2023,5.2066,5.2149,5.2243,5.2314,5.23,5.2374,5.2434,5.2527,5.2592,5.2667,5.278,5.2872,5.2925,5.3017,5.3074,5.3072,5.3097,5.3093,5.3102,5.2954,5.2924,5.3096,5.3096,5.3096,5.3096,5.3096,5.3096,5.2129,5.2247,5.2267,5.2412,5.2455,5.2557,5.2601,5.2659,5.271,5.2836,5.2912,5.2945,5.3006,5.3102,5.3186,5.3199,5.3233,5.326,5.3271,5.3131,5.3113,5.3096,5.3068,5.3267,5.3267,5.3412,5.3413,5.3414]},{"header":{"parameterUnit":"m.s-1","parameterCategory":1,"la1":30.2991,"la2":30.254,"lo1":-89.0895,"lo2":-89.0444,"dy":0.0017,"dx":0.0017,"nx":28,"ny":28,"refTime":"2024-09-27T21:00:00:Z","depth":0,"parameterNumber":3,"parameterNumberName":"V-component_of_WINDS"},"data":[0,0,0,0,0,0,0,0,0,0,0,0,0,0,0,0,0,0,0,0,0,0,0,0,0,0,0,0,0,0,0,0,0,0,0,0,0,0,0,0,0,0,0,0,0,0,0,0,0,0,0,0,0,0,0,0,0,0,2.7089,2.709,0,2.7139,2.714,2.714,2.7129,2.7128,2.7127,2.7126,2.7176,2.7178,2.718,0,0,0,0,0,0,0,0,0,0,0,0,0,2.6982,2.6984,2.7089,2.709,2.709,2.7139,2.714,2.714,2.7129,2.7128,2.7127,2.7126,2.7175,2.7178,2.718,0,0,0,0,0,0,0,0,0,0,0,0,0,2.703,2.6985,2.7089,2.7091,2.7091,2.7139,2.714,2.7141,2.7129,2.7128,2.7127,2.7125,2.7174,2.7177,2.7181,2.7229,0,0,2.7191,2.7192,0,0,0,0,0,0,0,0,2.7027,2.7034,2.709,2.7091,2.7091,2.7126,2.712,2.717,2.713,2.7115,2.7126,2.7125,2.716,2.7165,2.7177,2.7232,2.7234,2.7191,2.7193,2.7194,2.7195,0,0,0,0,0,0,0,2.7024,2.7032,2.7109,2.7091,2.7092,2.7088,2.7094,2.713,2.7145,2.7116,2.7115,2.7122,2.7161,2.7174,2.7178,2.7234,2.7191,2.7194,2.7196,2.7197,2.7331,2.7332,0,0,0,0,0,0,2.702,2.7029,2.7107,2.711,2.7055,2.7091,2.7097,2.7117,2.7144,2.7147,2.7123,2.7121,2.7169,2.7174,2.718,2.7239,2.7194,2.7198,2.7199,2.7329,2.7331,2.7333,0,0,0,0,0,0,2.7018,2.7027,2.7105,2.707,2.7079,2.7095,2.7117,2.7118,2.7132,2.715,2.7152,2.7134,2.7168,2.7175,2.7217,2.724,2.7199,2.7202,2.7327,2.733,2.7332,2.7356,0,0,0,0,0,0,2.7015,2.7027,2.7046,2.707,2.7081,2.7142,2.7118,2.712,2.7138,2.7136,2.7161,2.7163,2.7168,2.7212,2.722,2.7244,2.7205,2.7325,2.7328,2.7331,2.7354,2.7359,2.7364,0,0,0,0,0,2.7011,2.705,2.7047,2.7056,2.7105,2.7144,2.715,2.7155,2.714,2.7159,2.717,2.7162,2.7236,2.7217,2.7226,2.7251,2.7324,2.7328,2.7331,2.7351,2.7358,2.7364,0,0,0,0,0,0,2.7028,2.7054,2.705,2.7098,2.7119,2.7142,2.7166,2.7162,2.7187,2.7184,2.7188,2.7194,2.7236,2.7247,2.7225,2.7299,2.7278,2.7283,2.729,2.7297,2.7302,2.7298,2.7207,0,0,0,0,0,2.7037,2.7066,2.7087,2.7127,2.7138,2.715,2.7167,2.7169,2.719,2.7199,2.7213,2.7234,2.7261,2.728,2.7306,2.7355,2.736,2.7376,2.7382,2.7386,2.7391,2.7417,2.7425,2.7344,2.7344,2.7344,0,0,2.7056,2.7074,2.7092,2.7131,2.7147,2.7177,2.7158,2.719,2.7212,2.7203,2.7244,2.7255,2.7278,2.7324,2.7345,2.7335,2.7414,2.7391,2.7394,2.7396,2.7422,2.7429,2.7436,2.7347,2.7346,2.7346,0,0,2.7107,2.7123,2.7159,2.7175,2.72,2.7208,2.7217,2.724,2.7248,2.7289,2.7283,2.7309,2.7356,2.7373,2.7388,2.7445,2.7439,2.7453,2.7481,2.7506,2.7513,2.7518,2.7539,2.7546,2.7458,2.7458,2.7458,0,2.7127,2.7173,2.7177,2.721,2.7227,2.7222,2.7257,2.7273,2.7305,2.7317,2.7305,2.7365,2.7381,2.743,2.7444,2.7456,2.7465,2.745,2.7512,2.7517,2.7523,2.7542,2.7549,2.7459,2.7459,2.7459,2.7459,0,2.7197,2.7228,2.7254,2.7286,2.7306,2.734,2.7349,2.7369,2.7369,2.7377,2.7419,2.7437,2.7467,2.7479,2.7479,2.7528,2.7521,2.7511,2.749,2.7532,2.755,2.7557,2.7462,2.7461,2.7461,2.746,0,0,2.7259,2.7293,2.7302,2.7317,2.7344,2.7368,2.7402,2.7432,2.7448,2.747,2.7499,2.7539,2.753,2.7546,2.7548,2.7571,2.7615,2.7558,2.7558,2.7568,2.767,2.7678,2.7686,2.7611,2.7612,2.7613,2.7668,0,2.7312,2.7372,2.7377,2.7431,2.746,2.7454,2.7484,2.7503,2.7512,2.7538,2.7547,2.7576,2.7561,2.7571,2.7594,2.7605,2.7635,2.7601,2.7637,2.7638,2.7631,2.7696,2.7704,2.7754,2.7675,2.7676,2.7677,0,2.7381,2.7406,2.7463,2.7487,2.7499,2.7525,2.7553,2.7577,2.7599,2.7604,2.7623,2.7622,2.7656,2.7634,2.768,2.7657,2.7672,2.7679,2.7681,2.7685,2.766,2.7701,2.7771,2.7778,2.7688,2.7687,2.7686,0,2.7421,2.7469,2.7509,2.7521,2.755,2.7568,2.7581,2.7601,2.7619,2.7643,2.7654,2.7682,2.7697,2.7718,2.7724,2.7707,2.7771,2.7749,2.7775,2.7775,2.7789,2.7788,2.7862,2.7799,2.7798,2.7798,2.7798,0,2.7479,2.7514,2.7527,2.7552,2.7591,2.7596,2.7634,2.7646,2.7664,2.769,2.7687,2.7712,2.7718,2.7744,2.7749,2.7787,2.7794,2.7798,2.7799,2.7799,2.7798,2.7809,2.7805,2.78,2.78,2.7799,2.7799,0,2.753,2.754,2.7584,2.7607,2.7613,2.7641,2.7661,2.7684,2.7693,2.7726,2.7734,2.7748,2.7778,2.7786,2.7822,2.7825,2.787,2.7868,2.7863,2.7863,2.7889,2.7886,2.7972,2.7984,2.7913,2.7913,2.7914,0,2.7567,2.7594,2.762,2.7638,2.7651,2.768,2.7698,2.7704,2.7723,2.775,2.777,2.78,2.7824,2.7873,2.7885,2.7913,2.7911,2.7939,2.7915,2.7914,2.7911,2.791,2.7912,2.7944,2.7945,2.7945,2.7946,0,2.7631,2.7634,2.7661,2.769,2.7712,2.7734,2.7756,2.777,2.7779,2.7801,2.7832,2.7851,2.7888,2.7917,2.7945,2.7957,2.7953,2.7953,2.7961,2.7961,2.7957,2.7959,2.7875,2.7951,2.7951,2.795,2.795,2.795,2.7675,2.7699,2.7721,2.7751,2.7768,2.7789,2.7812,2.7824,2.785,2.7881,2.7883,2.7917,2.7937,2.7974,2.7988,2.8014,2.8006,2.8017,2.802,2.8022,2.8024,2.7953,2.8019,2.8019,2.8019,2.8019,2.8019,0,2.7739,2.7753,2.7781,2.7811,2.7835,2.7829,2.7853,2.7873,2.7903,2.7923,2.7947,2.7983,2.8011,2.8026,2.8055,2.8073,2.8071,2.808,2.8079,2.8082,2.803,2.8021,2.8081,2.8081,2.8081,2.8081,2.8081,2.808,2.7775,2.7815,2.7821,2.7869,2.7883,2.7917,2.7931,2.7949,2.7965,2.8006,2.803,2.804,2.8057,2.8087,2.8113,2.8117,2.8127,2.8137,2.8139,2.8091,2.8085,2.8079,2.807,2.8139,2.8139,2.8188,2.8189,2.8189]}]]